User: anonymous   Login
Location: Colonia Mina de C?rbuni
(46.1667°N, 22.7167°E)
Time: 06:54:52
(UTC+00:00)
Language:

Meteor 1-27 - Orbit

View from above orbital plane
View from above orbital plane
View from above satellite
View from above satellite

Ground track
Ground track

The orbit data is extracted from the following two-line orbital elements,

1 09903U 77024A   23151.91313950  .00000223  00000-0  12206-3 0  9995
2 09903  81.2704 134.0390 0036543 268.7975  90.9008 14.08466981370968
Epoch (UTC): 31 May 2023 21:54:55
Eccentricity: 0.0036543
inclination: 81.2704°
perigee height: 838 km
apogee height: 891 km
right ascension of ascending node: 134.0390°
argument of perigee: 268.7975°
revolutions per day: 14.08466981
mean anomaly at epoch: 90.9008°
orbit number at epoch: 37096

The dashed part of the orbit path shows where the satellite is in the earth's shadow,  

DLR